This is the latest recevied weather packets stored in our database for station/object YO8SHU-10. If no packets are shown the sender has not sent any weather packets the latest 10 day(s).
| Time | Temp. | Humidity | Pressure | Rain* | Wind** | Luminosity | Snow |
|---|---|---|---|---|---|---|---|
| 1777710616 | 11.11° C | 84% | 1029.5 hPa | - | - | - | - |
| 1777708816 | 12.78° C | 76% | 1029.6 hPa | - | - | - | - |
| 1777707015 | 11.67° C | 76% | 1029.6 hPa | - | - | - | - |
| 1777705215 | 10.56° C | 84% | 1029.6 hPa | - | - | - | - |
| 1777703415 | 9.44° C | 90% | 1029.6 hPa | - | - | - | - |
| 1777701614 | 8.89° C | 94% | 1029.5 hPa | - | - | - | - |
| 1777699814 | 8.33° C | 100% | 1029.5 hPa | - | - | - | - |
| 1777698014 | 7.22° C | 100% | 1029.3 hPa | - | - | - | - |
| 1777696213 | 6.67° C | 100% | 1029.1 hPa | - | - | - | - |
| 1777694413 | 6.11° C | 100% | 1029.1 hPa | - | - | - | - |
| 1777692613 | 6.11° C | 100% | 1028.9 hPa | - | - | - | - |
| 1777690812 | 6.11° C | 100% | 1028.8 hPa | - | - | - | - |
| 1777689012 | 5.56° C | 100% | 1028.7 hPa | - | - | - | - |
| 1777687212 | 5.56° C | 100% | 1028.9 hPa | - | - | - | - |
| 1777685411 | 5.56° C | 100% | 1029.1 hPa | - | - | - | - |
| 1777683611 | 6.11° C | 100% | 1029.1 hPa | - | - | - | - |
| 1777681811 | 6.11° C | 99% | 1029 hPa | - | - | - | - |
| 1777680010 | 7.22° C | 100% | 1029 hPa | - | - | - | - |
| 1777678210 | 7.22° C | 98% | 1029.3 hPa | - | - | - | - |
| 1777676409 | 7.22° C | 95% | 1029.6 hPa | - | - | - | - |
| 1777674610 | 7.22° C | 92% | 1029.5 hPa | - | - | - | - |
| 1777672809 | 7.78° C | 80% | 1029.6 hPa | - | - | - | - |
| 1777671009 | 8.33° C | 63% | 1029.7 hPa | - | - | - | - |
| 1777669208 | 8.89° C | 59% | 1029.3 hPa | - | - | - | - |
| 1777667408 | 9.44° C | 52% | 1029.4 hPa | - | - | - | - |
* Rain since midnight (hover to see other rain measurements)
** Current wind speed in m/s (hover to see current wind gust speed)